SCP
0 -0 -0 -0 -0 -0 -0 -0 -0 -0 -0 -0 -0 -0 0 0 0 0 0 0 0 0 0 0 0 0 0 0 0 0 0 0
-0 -0 -0 -0 -0 -0 -0 -0 -0 -0 -0 -0 -0 -0 0 0 0 0 0 0 0 0 0 0 0 0 0 0 0 0 -0 -0
-0 -0 -0 -0 -0 -0 -0 -0 -0 -0 -0 -0 -0 0 0 0 0 0 0 0 0 0 0 0 0 0 0 0 0 0 -0 -0
-0 -0 -0 -0 -0 -0 -0 -0 -0 -0 -0 0 0 0 0 0 0 0 0 0 0 0 0 0 0 0 0 0 0 0 0 0
-0 -0 -0 -0 0 0 0 -0 -0 -0 0 0 0 0 0 0 0 0 0 0 0 0 0 0 0 0 0 0 0 0 0 0
0 -0 -0 -0 -0 0 0 0 0 0 0 -0 -0 0 0 0 0 0 0 0 0 0 0 0 0 0 0 0 0 0 0 0
0 0 -0 -0 0 0 0 0 0 0 0 0 0 0 0 0 0 0 0 0 0 0 0 0 0 0 0 0 0 0 0 0
-0 0 0 0 0 0 0 0 0 0 0 0 0 0 0 0 0 0 0 0 0 0 0 0 0 0 0 0 0 0 0 0
-0 -0 -0 0 0 0 0 0 0 0 0 0 0 0 0 0 0 0 0 0 0 0 0 0 0 0 0 0 0 0 0 0
-0 -0 -0 -0 -0 0 0 0 0 0 0 0 0 0 0 0 0 0 0 0 0 0 0 0 0 0 0 0 0 0 0 0
-0 -0 -0 -0 0 0 0 0 0 0 0 0 0 0 0 0 0 0 0 0 0 0 0 0 0 0 0 0 0 0 0 0
-0 0 0 0 0 0 0 0 0 0 0 0 0 0 0 0 0 0 0 0 0 0 0 0 0 0 0 0 0 0 0 0
0 0 0 0 0 0 0 0 0 0 0 0 0 0 0 0 0 0 0 0 0 0 -0 -0 -0 -0 0 0 0 0 0 0
0 0 0 0 0 0 0 0 0 0 0 0 0 0 0 0 0 0 0 0 -0 -0 -0 -0 -0 -0 0 0 0 0 0 0
1 0 0 0 0 0 0 0 0 0 0 0 0 0 0 0 0 0 0 0 -0 -0 -0 -0 -0 -0 -0 0 0 0 0 0
0 0 0 0 0 0 0 0 0 0 0 0 0 0 0 0 0 0 0 0 -0 -0 -0 -0 -0 -0 -0 0 0 0 0 0
0 0 0 0 0 0 0 0 0 0 0 0 0 0 0 0 0 0 0 0 0 -0 -0 -0 -0 -0 -0 -0 -0 0 0 0
0 0 0 0 0 0 0 0 0 0 0 0 0 0 0 0 0 0 0 0 0 0 -0 -0 -0 -0 -0 -0 0 -0 0 0
0 0 0 0 0 0 0 0 0 0 0 0 0 0 0 0 0 0 0 0 0 0 0 -0 -0 -0 -0 0 0 0 0 0
Wind_Speed_500mb
58 55 52 51 48 42 39 39 36 34 31 27 24 21 18 15 11 9 8 7 6 5 3 3 3 4 6 9 13 17 14 15
55 54 53 52 49 44 40 38 36 33 29 25 22 19 15 11 8 6 5 4 4 4 4 4 4 5 6 8 10 15 18 17
54 54 55 54 51 46 41 38 35 32 28 23 19 15 12 9 7 5 5 5 5 5 4 4 5 6 7 8 10 12 17 21
52 52 54 55 51 45 41 37 34 30 26 21 18 14 11 10 9 9 9 10 8 5 5 3 3 5 7 8 8 10 11 13
51 51 53 52 49 45 41 36 32 28 24 20 18 16 15 15 14 13 13 9 5 2 3 5 4 7 8 7 9 11 16 16
55 52 51 50 47 43 38 35 32 28 25 24 21 19 18 17 17 14 9 5 1 4 8 10 11 10 11 11 12 13 18 22
64 57 52 48 46 43 40 36 33 30 27 24 22 21 21 17 15 9 4 5 10 12 12 16 16 15 16 18 21 21 23 22
62 59 55 51 47 43 40 37 34 31 27 26 24 19 16 13 10 5 7 9 12 14 16 21 22 23 23 23 24 25 28 26
67 61 58 54 49 44 39 34 32 30 28 24 22 19 13 10 7 1 6 12 18 22 25 28 30 31 31 34 34 33 34 32
70 65 62 57 52 46 40 36 34 31 26 20 18 13 11 8 4 6 11 14 18 21 24 25 26 27 27 28 29 29 30 33
73 67 64 60 55 50 45 39 34 31 23 16 16 11 10 5 2 5 8 13 17 19 21 22 23 24 26 26 26 25 25 27
77 70 68 63 61 54 49 41 36 29 22 14 14 11 13 10 7 8 10 12 16 21 25 27 26 26 25 24 24 22 22 21
82 78 69 65 64 59 54 45 36 28 23 15 15 18 19 14 11 10 11 14 19 24 26 27 28 29 28 28 26 23 20 16
85 80 76 72 67 64 58 49 40 33 27 19 18 22 19 15 11 10 12 16 22 26 29 34 36 37 35 32 30 27 18 8
86 82 78 75 70 66 60 55 50 42 36 25 26 28 22 17 10 9 11 16 22 26 30 36 39 40 41 38 35 21 14 6
88 89 84 81 74 70 67 67 62 56 47 37 36 32 24 16 9 7 8 13 19 24 32 38 40 41 42 43 39 26 20 9
91 96 95 89 79 72 69 69 65 59 51 39 41 36 28 19 12 6 7 12 18 24 28 33 40 44 46 49 45 30 17 7
98 104 107 99 85 74 73 72 65 62 53 52 52 43 32 23 15 6 5 9 15 21 26 33 39 42 41 42 43 33 14 13
107 104 112 102 91 82 78 76 72 69 68 64 56 46 35 27 19 9 3 6 13 18 23 30 37 40 40 37 35 34 27 28
Wind_Direction_500mb
181 183 182 179 179 180 180 179 176 174 173 170 165 161 159 156 148 136 127 119 110 101 89 57 29 3 348 341 341 339 340 333
185 185 183 183 183 183 182 181 180 179 177 175 171 172 167 164 158 150 137 111 82 62 43 25 12 355 342 333 337 331 330 328
187 185 183 184 185 186 185 185 184 183 182 180 182 183 181 178 167 154 128 102 78 58 27 359 340 318 312 319 341 339 326 325
188 184 182 183 185 187 188 188 188 188 187 187 191 188 179 159 145 132 122 113 108 83 43 15 329 339 340 348 8 13 359 355
186 184 180 183 186 189 190 190 191 191 191 186 179 171 156 146 140 137 134 138 135 99 14 345 322 339 336 344 357 5 6 9
186 183 182 183 186 186 188 187 186 184 178 175 172 168 158 151 154 156 160 162 218 317 327 334 323 324 328 322 331 335 332 343
183 180 181 182 182 181 182 182 180 180 176 174 174 177 173 169 168 190 228 320 317 321 332 332 337 335 309 296 297 301 300 300
181 181 179 181 181 181 181 180 181 181 181 181 183 181 182 177 190 238 293 325 336 336 326 322 323 325 317 314 311 303 300 287
188 183 181 181 181 180 181 185 188 188 184 178 181 187 198 202 200 140 2 350 337 330 323 316 312 308 306 305 304 301 299 298
196 186 184 182 181 180 181 187 186 181 179 181 185 185 172 159 119 29 351 344 341 337 334 330 326 320 316 311 308 307 304 298
199 190 187 185 183 181 180 180 182 179 183 174 173 161 161 147 89 27 23 14 5 358 357 355 350 343 335 331 324 317 310 304
201 192 192 187 182 180 178 177 177 180 182 177 162 154 149 145 125 87 56 37 25 18 12 7 359 356 350 344 337 329 315 307
204 196 194 189 186 183 180 179 176 176 181 179 162 158 154 145 122 95 68 44 35 28 19 11 8 5 5 0 356 347 337 322
209 199 196 192 190 187 187 186 186 190 189 182 174 167 160 153 131 91 61 44 38 29 18 14 9 6 7 10 4 1 8 20
214 206 201 194 194 193 194 193 195 200 195 192 185 178 175 164 132 93 59 42 37 27 20 17 16 10 7 13 17 26 26 47
217 211 203 199 197 198 197 198 200 202 199 194 186 184 178 171 150 111 72 43 32 18 19 15 18 15 8 13 20 36 34 90
221 214 210 206 203 204 207 204 202 202 201 197 190 189 186 182 172 131 65 34 24 19 17 14 16 19 11 10 18 22 21 70
225 219 211 207 207 209 211 207 203 202 200 195 195 195 191 186 184 153 79 36 19 15 14 15 15 16 19 11 12 25 6 341
229 222 213 211 209 212 213 210 211 206 203 201 197 195 192 192 192 183 113 26 11 12 14 13 11 12 11 15 11 8 10 357
Wind_Speed_850mb
58 55 52 51 48 42 39 39 36 34 31 27 24 21 18 15 11 9 8 7 6 5 3 3 3 4 6 9 13 17 14 15
55 54 53 52 49 44 40 38 36 33 29 25 22 19 15 11 8 6 5 4 4 4 4 4 4 5 6 8 10 15 18 17
54 54 55 54 51 46 41 38 35 32 28 23 19 15 12 9 7 5 5 5 5 5 4 4 5 6 7 8 10 12 17 21
52 52 54 55 51 45 41 37 34 30 26 21 18 14 11 10 9 9 9 10 8 5 5 3 3 5 7 8 8 10 11 13
51 51 53 52 49 45 41 36 32 28 24 20 18 16 15 15 14 13 13 9 5 2 3 5 4 7 8 7 9 11 16 16
55 52 51 50 47 43 38 35 32 28 25 24 21 19 18 17 17 14 9 5 1 4 8 10 11 10 11 11 12 13 18 22
64 57 52 48 46 43 40 36 33 30 27 24 22 21 21 17 15 9 4 5 10 12 12 16 16 15 16 18 21 21 23 22
62 59 55 51 47 43 40 37 34 31 27 26 24 19 16 13 10 5 7 9 12 14 16 21 22 23 23 23 24 25 28 26
67 61 58 54 49 44 39 34 32 30 28 24 22 19 13 10 7 1 6 12 18 22 25 28 30 31 31 34 34 33 34 32
70 65 62 57 52 46 40 36 34 31 26 20 18 13 11 8 4 6 11 14 18 21 24 25 26 27 27 28 29 29 30 33
73 67 64 60 55 50 45 39 34 31 23 16 16 11 10 5 2 5 8 13 17 19 21 22 23 24 26 26 26 25 25 27
77 70 68 63 61 54 49 41 36 29 22 14 14 11 13 10 7 8 10 12 16 21 25 27 26 26 25 24 24 22 22 21
82 78 69 65 64 59 54 45 36 28 23 15 15 18 19 14 11 10 11 14 19 24 26 27 28 29 28 28 26 23 20 16
85 80 76 72 67 64 58 49 40 33 27 19 18 22 19 15 11 10 12 16 22 26 29 34 36 37 35 32 30 27 18 8
86 82 78 75 70 66 60 55 50 42 36 25 26 28 22 17 10 9 11 16 22 26 30 36 39 40 41 38 35 21 14 6
88 89 84 81 74 70 67 67 62 56 47 37 36 32 24 16 9 7 8 13 19 24 32 38 40 41 42 43 39 26 20 9
91 96 95 89 79 72 69 69 65 59 51 39 41 36 28 19 12 6 7 12 18 24 28 33 40 44 46 49 45 30 17 7
98 104 107 99 85 74 73 72 65 62 53 52 52 43 32 23 15 6 5 9 15 21 26 33 39 42 41 42 43 33 14 13
107 104 112 102 91 82 78 76 72 69 68 64 56 46 35 27 19 9 3 6 13 18 23 30 37 40 40 37 35 34 27 28
Wind_Direction_850mb
181 183 182 179 179 180 180 179 176 174 173 170 165 161 159 156 148 136 127 119 110 101 89 57 29 3 348 341 341 339 340 333
185 185 183 183 183 183 182 181 180 179 177 175 171 172 167 164 158 150 137 111 82 62 43 25 12 355 342 333 337 331 330 328
187 185 183 184 185 186 185 185 184 183 182 180 182 183 181 178 167 154 128 102 78 58 27 359 340 318 312 319 341 339 326 325
188 184 182 183 185 187 188 188 188 188 187 187 191 188 179 159 145 132 122 113 108 83 43 15 329 339 340 348 8 13 359 355
186 184 180 183 186 189 190 190 191 191 191 186 179 171 156 146 140 137 134 138 135 99 14 345 322 339 336 344 357 5 6 9
186 183 182 183 186 186 188 187 186 184 178 175 172 168 158 151 154 156 160 162 218 317 327 334 323 324 328 322 331 335 332 343
183 180 181 182 182 181 182 182 180 180 176 174 174 177 173 169 168 190 228 320 317 321 332 332 337 335 309 296 297 301 300 300
181 181 179 181 181 181 181 180 181 181 181 181 183 181 182 177 190 238 293 325 336 336 326 322 323 325 317 314 311 303 300 287
188 183 181 181 181 180 181 185 188 188 184 178 181 187 198 202 200 140 2 350 337 330 323 316 312 308 306 305 304 301 299 298
196 186 184 182 181 180 181 187 186 181 179 181 185 185 172 159 119 29 351 344 341 337 334 330 326 320 316 311 308 307 304 298
199 190 187 185 183 181 180 180 182 179 183 174 173 161 161 147 89 27 23 14 5 358 357 355 350 343 335 331 324 317 310 304
201 192 192 187 182 180 178 177 177 180 182 177 162 154 149 145 125 87 56 37 25 18 12 7 359 356 350 344 337 329 315 307
204 196 194 189 186 183 180 179 176 176 181 179 162 158 154 145 122 95 68 44 35 28 19 11 8 5 5 0 356 347 337 322
209 199 196 192 190 187 187 186 186 190 189 182 174 167 160 153 131 91 61 44 38 29 18 14 9 6 7 10 4 1 8 20
214 206 201 194 194 193 194 193 195 200 195 192 185 178 175 164 132 93 59 42 37 27 20 17 16 10 7 13 17 26 26 47
217 211 203 199 197 198 197 198 200 202 199 194 186 184 178 171 150 111 72 43 32 18 19 15 18 15 8 13 20 36 34 90
221 214 210 206 203 204 207 204 202 202 201 197 190 189 186 182 172 131 65 34 24 19 17 14 16 19 11 10 18 22 21 70
225 219 211 207 207 209 211 207 203 202 200 195 195 195 191 186 184 153 79 36 19 15 14 15 15 16 19 11 12 25 6 341
229 222 213 211 209 212 213 210 211 206 203 201 197 195 192 192 192 183 113 26 11 12 14 13 11 12 11 15 11 8 10 357